Location: Bremen
(53.0793°N, 8.8017°E)
Time: 02:50:24
(UTC+01:00)

Transit 2A - Pass Details

Date: 30 November 2021
Orbit: 591 x 967 km, 66.7° (Epoch: 17 January)

Event Time Altitude Azimuth Distance (km) Brightness Sun altitude
Exits shadow 07:10:46 - 319° (NW) 2,835 8.4 -9.0°
Reaches altitude 10° 07:11:18 10° 321° (NW) 2,680 8.3 -9.0°
Maximum altitude 07:16:43 29° 20° (NNE) 1,704 7.8 -8.2°
Drops below altitude 10° 07:22:11 10° 79° (E) 2,705 9.7 -7.5°
Sets 07:25:07 0° 90° (E) 3,630 10.8 -7.1°
